[[{"header":{"parameterUnit":"m.s-1","parameterCategory":2,"la1":30.2991,"la2":30.254,"lo1":-89.0895,"lo2":-89.0444,"dy":0.0017,"dx":0.0017,"nx":28,"ny":28,"refTime":"2025-01-17T09:00:00:Z","depth":"0","parameterNumber":2,"parameterNumberName":"U-component_of_CURRENTS"},"data":[0,0,0,0,0,0,0,0,0,0,0,0,0,0,0,0,0,0,0,0,0,0,0,0,0,0,0,0,0,0,0,0,0,0,0,0,0,0,0,0,0,0,0,0,0,0,0,0,0,0,0,0,0,0,0,0,0,0,0.2671,0.2671,0,0.2678,0.2678,0.2678,0.2658,0.2658,0.2658,0.2658,0.2668,0.2669,0.2669,0,0,0,0,0,0,0,0,0,0,0,0,0,0.2604,0.2605,0.2671,0.2671,0.2672,0.2678,0.2678,0.2678,0.2658,0.2658,0.2658,0.2657,0.2668,0.2669,0.2669,0,0,0,0,0,0,0,0,0,0,0,0,0,0.2621,0.2605,0.2671,0.2665,0.2665,0.2678,0.2678,0.2678,0.2659,0.2658,0.2658,0.2657,0.2668,0.2669,0.267,0.2684,0,0,0.2672,0.2673,0,0,0,0,0,0,0,0,0.262,0.2623,0.2666,0.2666,0.2666,0.267,0.2658,0.2681,0.2659,0.2658,0.2658,0.2657,0.2671,0.2672,0.267,0.2685,0.2685,0.2672,0.2673,0.2673,0.2673,0,0,0,0,0,0,0,0.2619,0.2623,0.2671,0.2666,0.2666,0.265,0.2652,0.2662,0.2665,0.2658,0.2657,0.2663,0.2671,0.2669,0.267,0.2685,0.2672,0.2673,0.2674,0.2674,0.2717,0.2717,0,0,0,0,0,0,0.2627,0.2622,0.267,0.2671,0.2645,0.2652,0.2654,0.2666,0.2665,0.2665,0.2664,0.2662,0.2668,0.2669,0.267,0.2717,0.2673,0.2674,0.2674,0.2716,0.2717,0.2718,0,0,0,0,0,0,0.2626,0.2632,0.267,0.2648,0.2653,0.2654,0.2668,0.2667,0.2665,0.2669,0.2669,0.2664,0.2667,0.2669,0.2677,0.2716,0.2674,0.2675,0.2715,0.2716,0.2717,0.2792,0,0,0,0,0,0,0.2624,0.2631,0.2639,0.2649,0.2654,0.269,0.2668,0.2667,0.2671,0.2669,0.267,0.267,0.2667,0.2676,0.2678,0.2717,0.2676,0.2715,0.2716,0.2717,0.2789,0.2795,0.2801,0,0,0,0,0,0.2622,0.264,0.264,0.2646,0.2667,0.2691,0.2692,0.2688,0.2672,0.2682,0.2671,0.267,0.2685,0.2677,0.2679,0.2719,0.2714,0.2716,0.2717,0.2786,0.2794,0.2801,0,0,0,0,0,0,0.2618,0.2641,0.264,0.2665,0.2682,0.2689,0.27,0.2691,0.2689,0.2687,0.2675,0.2676,0.2701,0.2691,0.2682,0.2732,0.2701,0.2703,0.2753,0.276,0.2766,0.2794,0.2676,0,0,0,0,0,0.2621,0.264,0.2659,0.268,0.2692,0.2693,0.27,0.2701,0.2703,0.2702,0.2701,0.2699,0.2709,0.2717,0.2723,0.2749,0.2789,0.2774,0.2781,0.2786,0.2809,0.2887,0.2904,0.2722,0.2722,0.2722,0,0,0.2627,0.2641,0.2652,0.268,0.2691,0.2715,0.2696,0.2718,0.2735,0.2705,0.2725,0.2722,0.2718,0.2749,0.276,0.2747,0.2862,0.2788,0.2793,0.2813,0.2891,0.2909,0.2925,0.2723,0.2723,0.2723,0,0,0.2647,0.2662,0.2683,0.27,0.2725,0.2734,0.2741,0.2756,0.2762,0.2781,0.2765,0.2784,0.279,0.2807,0.2811,0.2853,0.289,0.2851,0.2913,0.2989,0.3006,0.3021,0.312,0.3143,0.2857,0.2857,0.2858,0,0.265,0.2682,0.2693,0.2718,0.2736,0.2744,0.2772,0.2785,0.2798,0.2814,0.2797,0.2834,0.2825,0.2879,0.2889,0.2874,0.2928,0.2888,0.3002,0.3017,0.3031,0.3129,0.3154,0.2861,0.2861,0.286,0.286,0,0.2688,0.271,0.2729,0.2762,0.2783,0.2813,0.2837,0.2857,0.2863,0.2878,0.2929,0.293,0.2954,0.2957,0.2936,0.303,0.3042,0.3002,0.2992,0.3055,0.3153,0.3177,0.2867,0.2865,0.2864,0.2863,0,0,0.2704,0.2745,0.2751,0.2772,0.281,0.2835,0.2873,0.2917,0.2966,0.298,0.3053,0.3058,0.3069,0.3075,0.3067,0.3133,0.3276,0.3116,0.3118,0.3231,0.348,0.3457,0.3481,0.3262,0.3266,0.3269,0.3518,0,0.2731,0.2778,0.2791,0.2841,0.2876,0.2894,0.2937,0.2976,0.3021,0.3097,0.3118,0.3187,0.3112,0.3156,0.3198,0.326,0.334,0.3214,0.3387,0.3393,0.3378,0.3508,0.338,0.3588,0.3542,0.3546,0.3549,0,0.2775,0.2797,0.2844,0.2896,0.2914,0.2938,0.3024,0.3066,0.3162,0.3206,0.3268,0.3305,0.3395,0.3333,0.3475,0.3402,0.345,0.3496,0.3505,0.3476,0.3415,0.351,0.3634,0.3539,0.3587,0.3584,0.3581,0,0.2801,0.2844,0.2879,0.2896,0.2951,0.2972,0.3007,0.3094,0.3153,0.33,0.3377,0.347,0.3541,0.3614,0.3663,0.3599,0.3845,0.3762,0.3796,0.3796,0.3717,0.3703,0.3782,0.3892,0.3891,0.389,0.389,0,0.2842,0.287,0.2889,0.2911,0.2958,0.2996,0.3077,0.3134,0.3251,0.3339,0.3432,0.3539,0.3616,0.3737,0.3766,0.3871,0.3922,0.386,0.3872,0.3739,0.3724,0.3657,0.3606,0.39,0.3898,0.3896,0.3894,0,0.2862,0.2884,0.2921,0.296,0.2972,0.3005,0.3082,0.3147,0.327,0.34,0.346,0.3628,0.3793,0.3881,0.4042,0.4007,0.4023,0.4137,0.3989,0.3978,0.3875,0.3832,0.3813,0.3703,0.4236,0.4237,0.4238,0,0.287,0.2893,0.2933,0.2942,0.2948,0.2998,0.3032,0.314,0.3209,0.3439,0.3499,0.3727,0.3849,0.4098,0.4144,0.4265,0.4092,0.4185,0.4017,0.3906,0.3868,0.3682,0.3575,0.3964,0.3963,0.3962,0.3961,0,0.2863,0.288,0.2897,0.2924,0.2944,0.2978,0.3033,0.3088,0.3228,0.3355,0.3532,0.3676,0.3931,0.4013,0.4177,0.4206,0.3989,0.4163,0.4086,0.3717,0.3484,0.3369,0.3781,0.3951,0.3952,0.3953,0.3953,0.3953,0.2834,0.2843,0.2868,0.2885,0.2907,0.2928,0.294,0.3018,0.3122,0.3272,0.3461,0.3609,0.3821,0.4044,0.4061,0.4009,0.3953,0.3883,0.3869,0.3711,0.3506,0.3913,0.4049,0.4051,0.4052,0.4053,0.4054,0,0.2788,0.2806,0.2822,0.2836,0.283,0.2869,0.2911,0.2912,0.2983,0.3147,0.3293,0.3481,0.3625,0.375,0.3841,0.3732,0.3525,0.3631,0.3334,0.3262,0.3685,0.3569,0.3559,0.3559,0.3559,0.3559,0.3559,0.3559,0.2766,0.2769,0.2782,0.2749,0.2752,0.2723,0.2728,0.2741,0.2812,0.2899,0.2982,0.3127,0.3428,0.367,0.3621,0.3522,0.3229,0.3113,0.3086,0.3386,0.3405,0.3424,0.3302,0.3236,0.3236,0.2501,0.2496,0.2492]},{"header":{"parameterUnit":"m.s-1","parameterCategory":2,"la1":30.2991,"la2":30.254,"lo1":-89.0895,"lo2":-89.0444,"dy":0.0017,"dx":0.0017,"nx":28,"ny":28,"refTime":"2025-01-17T09:00:00:Z","depth":"0","parameterNumber":3,"parameterNumberName":"V-component_of_CURRENTS"},"data":[0,0,0,0,0,0,0,0,0,0,0,0,0,0,0,0,0,0,0,0,0,0,0,0,0,0,0,0,0,0,0,0,0,0,0,0,0,0,0,0,0,0,0,0,0,0,0,0,0,0,0,0,0,0,0,0,0,0,0.0185,0.0184,0,0.0119,0.0118,0.0117,0.0069,0.0068,0.0068,0.0068,-0.0064,-0.0067,-0.0071,0,0,0,0,0,0,0,0,0,0,0,0,0,0.0214,0.0214,0.0185,0.0184,0.0183,0.0119,0.0118,0.0117,0.0069,0.0068,0.0068,0.0068,-0.0063,-0.0067,-0.0071,0,0,0,0,0,0,0,0,0,0,0,0,0,0.0179,0.0214,0.0185,0.0153,0.015,0.0119,0.0118,0.0116,0.0069,0.0068,0.0068,0.0068,-0.0062,-0.0067,-0.0072,-0.0095,0,0,-0.0087,-0.0089,0,0,0,0,0,0,0,0,0.0181,0.0177,0.0159,0.0155,0.0152,0.0103,0.008,0.0043,0.0069,0.0098,0.0068,0.0068,-0.0013,-0.0022,-0.0035,-0.0101,-0.0107,-0.0087,-0.009,-0.0092,-0.0094,0,0,0,0,0,0,0,0.0183,0.018,0.0157,0.0158,0.0154,0.0123,0.0118,0.0072,0.0042,0.0095,0.0092,0.0088,-0.0016,-0.003,-0.0039,-0.0109,-0.0087,-0.0091,-0.0095,-0.0096,-0.0202,-0.0202,0,0,0,0,0,0,0.0199,0.0182,0.0159,0.0155,0.0168,0.0124,0.0118,0.0118,0.0044,0.0034,0.0088,0.0086,-0.0022,-0.0033,-0.0044,-0.0066,-0.0092,-0.0097,-0.01,-0.0202,-0.0202,-0.0202,0,0,0,0,0,0,0.02,0.0197,0.0161,0.0168,0.0162,0.0124,0.0124,0.0116,0.0102,0.004,0.0028,0.0082,-0.0022,-0.0037,-0.0075,-0.0072,-0.0099,-0.0104,-0.0202,-0.0202,-0.0202,-0.0117,0,0,0,0,0,0,0.0201,0.0198,0.0201,0.017,0.0162,0.0152,0.0124,0.0115,0.0101,0.0097,0.0031,0.0018,-0.0024,-0.0068,-0.008,-0.0079,-0.0108,-0.0203,-0.0202,-0.0202,-0.012,-0.0113,-0.0108,0,0,0,0,0,0.0202,0.0215,0.0202,0.0199,0.0169,0.0152,0.0146,0.0116,0.0101,0.01,0.0058,0.002,-0.0075,-0.0071,-0.0086,-0.0086,-0.0203,-0.0202,-0.0202,-0.0122,-0.0115,-0.0108,0,0,0,0,0,0,0.0238,0.0211,0.0196,0.0202,0.0181,0.0145,0.0143,0.0121,0.0087,0.0083,0.0022,0.0007,-0.0027,-0.0068,-0.0062,-0.0116,-0.0146,-0.0148,-0.008,-0.0073,-0.0068,-0.0031,-0.0112,0,0,0,0,0,0.0247,0.0244,0.0215,0.022,0.0213,0.0178,0.0167,0.0148,0.0115,0.01,0.0056,0.0006,-0.0037,-0.0062,-0.0107,-0.0136,-0.0155,-0.0147,-0.0141,-0.0136,-0.0116,-0.0143,-0.0137,-0.02,-0.02,-0.02,0,0,0.0264,0.0247,0.0247,0.0227,0.0208,0.0212,0.017,0.0162,0.0164,0.009,0.0077,0.0024,-0.004,-0.007,-0.0089,-0.0104,-0.0126,-0.0135,-0.013,-0.0113,-0.0142,-0.0136,-0.013,-0.02,-0.02,-0.02,0,0,0.0302,0.0282,0.0294,0.028,0.0259,0.0238,0.024,0.0207,0.019,0.0168,0.0116,0.0075,0.0007,-0.0031,-0.0062,-0.0052,-0.0095,-0.0076,-0.0019,-0.0045,-0.004,-0.0035,-0.0039,-0.0035,-0.0074,-0.0073,-0.0073,0,0.0329,0.0338,0.0296,0.0306,0.031,0.0257,0.0281,0.0254,0.0213,0.021,0.0176,0.0095,0.003,0.0005,0.0001,-0.0037,-0.0052,-0.0038,-0.0035,-0.0031,-0.0028,-0.0033,-0.0031,-0.0069,-0.007,-0.007,-0.0071,0,0.0372,0.0383,0.0392,0.0388,0.0382,0.0394,0.0359,0.0348,0.0318,0.0293,0.0263,0.018,0.0138,0.0099,0.0047,0.0037,0.002,-0.0023,-0.0046,-0.0016,-0.0024,-0.0023,-0.0063,-0.0065,-0.0066,-0.0067,0,0,0.0446,0.0429,0.0436,0.0455,0.0431,0.0439,0.0439,0.0435,0.046,0.039,0.0418,0.031,0.0268,0.0231,0.0157,0.0121,0.0116,0.0063,0.0059,0.0073,0.0078,0.0064,0.0064,0.0073,0.0073,0.0074,0.0068,0,0.0505,0.0548,0.0518,0.057,0.0598,0.0555,0.0571,0.0554,0.0531,0.0541,0.0448,0.0443,0.0316,0.0311,0.0245,0.0157,0.0122,0.0123,0.0035,0.0034,0.0028,0.0065,0.0028,0.002,0.0069,0.007,0.007,0,0.0573,0.0593,0.0649,0.0682,0.0692,0.0708,0.0742,0.0753,0.0735,0.0721,0.0678,0.0615,0.0548,0.0447,0.0303,0.031,0.0204,0.0126,0.0123,0.0084,0.0022,-0.0007,0.002,-0.0179,0.0072,0.0072,0.0071,0,0.0665,0.0698,0.0748,0.0756,0.0771,0.0794,0.0814,0.0814,0.0862,0.0856,0.0898,0.078,0.0764,0.0601,0.0409,0.0365,0.027,0.0189,0.0081,0.0079,0.0019,0.0012,-0.0144,0.0104,0.0104,0.0104,0.0104,0,0.0756,0.0805,0.0796,0.0828,0.0911,0.0892,0.0992,0.0989,0.1036,0.1124,0.1008,0.1052,0.0801,0.0704,0.0494,0.0307,0.0331,0.0114,0.008,0.0048,0.0044,-0.0157,-0.0274,0.0103,0.0103,0.0104,0.0104,0,0.0858,0.0848,0.0914,0.0938,0.0955,0.1023,0.1121,0.1199,0.1226,0.1342,0.136,0.1279,0.1139,0.0892,0.0655,0.0452,0.014,0.0185,0.0178,0.0143,-0.0164,-0.0274,-0.0439,-0.0523,0.0067,0.0067,0.0066,0,0.0902,0.0942,0.1,0.1045,0.1059,0.1156,0.1233,0.129,0.1387,0.1485,0.1556,0.1474,0.143,0.1086,0.0695,0.0362,0.0143,0.0129,0.0021,-0.0164,-0.0313,-0.0388,-0.0451,-0.0022,-0.0023,-0.0024,-0.0025,0,0.0981,0.1001,0.1049,0.1147,0.1226,0.1348,0.1463,0.1578,0.1667,0.1774,0.1876,0.1864,0.1523,0.116,0.0703,0.0444,-0.0024,0.0103,-0.0101,-0.0394,-0.0474,-0.0575,-0.002,-0.0032,-0.0031,-0.0031,-0.003,-0.003,0.1019,0.1079,0.1132,0.1238,0.1344,0.1504,0.1636,0.1781,0.1964,0.2143,0.2104,0.2112,0.158,0.0933,0.0577,-0.0098,-0.0087,-0.0312,-0.0425,-0.0477,-0.0583,-0.0022,-0.007,-0.0069,-0.0069,-0.0068,-0.0068,0,0.1036,0.1111,0.1214,0.1339,0.1483,0.1532,0.1758,0.1917,0.2149,0.2281,0.2374,0.2071,0.1446,0.0792,-0.0107,-0.0539,-0.0707,-0.0782,-0.0928,-0.0964,-0.0481,-0.0512,-0.0643,-0.0643,-0.0643,-0.0642,-0.0642,-0.0642,0.1042,0.1133,0.1205,0.1413,0.1529,0.1745,0.1892,0.2135,0.2282,0.2445,0.2413,0.235,0.181,0.0246,-0.0791,-0.1026,-0.1331,-0.141,-0.1517,-0.1238,-0.1203,-0.1171,-0.1228,-0.1507,-0.1508,-0.1961,-0.1967,-0.197]}],[{"header":{"parameterUnit":"m.s-1","parameterCategory":2,"la1":30.2991,"la2":30.254,"lo1":-89.0895,"lo2":-89.0444,"dy":0.0017,"dx":0.0017,"nx":28,"ny":28,"refTime":"2025-01-17T09:00:00:Z","depth":"2","parameterNumber":2,"parameterNumberName":"U-component_of_CURRENTS"},"data":[0,0,0,0,0,0,0,0,0,0,0,0,0,0,0,0,0,0,0,0,0,0,0,0,0,0,0,0,0,0,0,0,0,0,0,0,0,0,0,0,0,0,0,0,0,0,0,0,0,0,0,0,0,0,0,0,0,0,0.2156,0.2156,0,0.2171,0.2171,0.2171,0.2168,0.2167,0.2167,0.2167,0.2208,0.2209,0.2211,0,0,0,0,0,0,0,0,0,0,0,0,0,0.2124,0.2124,0.2156,0.2156,0.2157,0.2171,0.2171,0.2171,0.2168,0.2167,0.2167,0.2167,0.2207,0.2209,0.2211,0,0,0,0,0,0,0,0,0,0,0,0,0,0.2138,0.2125,0.2156,0.2156,0.2156,0.2171,0.2171,0.2171,0.2168,0.2167,0.2167,0.2166,0.2207,0.2209,0.2211,0.2233,0,0,0.2217,0.2218,0,0,0,0,0,0,0,0,0.2138,0.214,0.2156,0.2156,0.2156,0.2167,0.2175,0.2193,0.2168,0.2164,0.2167,0.2166,0.2197,0.22,0.2203,0.2235,0.2237,0.2217,0.2219,0.222,0.222,0,0,0,0,0,0,0,0.2137,0.2139,0.2162,0.2156,0.2157,0.2155,0.2157,0.2178,0.2184,0.2164,0.2164,0.2165,0.2197,0.2201,0.2204,0.2238,0.2217,0.2219,0.222,0.2221,0.2305,0.2306,0,0,0,0,0,0,0.2135,0.2138,0.2162,0.2163,0.2145,0.2156,0.2158,0.2164,0.2183,0.2185,0.2166,0.2165,0.2198,0.2202,0.2206,0.227,0.222,0.2222,0.2223,0.2304,0.2305,0.2306,0,0,0,0,0,0,0.2134,0.2137,0.2161,0.215,0.2153,0.2157,0.2164,0.2165,0.2183,0.2183,0.2186,0.2184,0.2198,0.2203,0.223,0.227,0.2222,0.2224,0.2303,0.2304,0.2306,0.2375,0,0,0,0,0,0,0.2133,0.2137,0.2145,0.215,0.2154,0.2182,0.2165,0.2165,0.2183,0.2183,0.22,0.2202,0.2198,0.2227,0.2232,0.2272,0.2226,0.2301,0.2303,0.2305,0.2371,0.2378,0.2384,0,0,0,0,0,0.2132,0.214,0.2146,0.2149,0.2164,0.2183,0.2186,0.2186,0.2185,0.22,0.2204,0.2203,0.2242,0.2229,0.2235,0.2277,0.2301,0.2303,0.2305,0.2368,0.2377,0.2384,0,0,0,0,0,0,0.2126,0.214,0.2147,0.2158,0.2178,0.2183,0.2195,0.2199,0.2215,0.2216,0.2216,0.2219,0.2257,0.2254,0.224,0.2303,0.2272,0.2275,0.2318,0.2326,0.2332,0.2345,0.2228,0,0,0,0,0,0.2131,0.2144,0.216,0.2172,0.2185,0.2197,0.2206,0.2209,0.222,0.2227,0.2239,0.225,0.227,0.2287,0.2297,0.2338,0.2363,0.2366,0.2373,0.2378,0.2391,0.246,0.2475,0.2313,0.2313,0.2313,0,0,0.2134,0.2141,0.215,0.2172,0.2188,0.2211,0.2202,0.2223,0.2247,0.2231,0.2269,0.2275,0.2283,0.2322,0.234,0.2327,0.2439,0.2381,0.2386,0.2396,0.2465,0.2481,0.2495,0.2315,0.2314,0.2314,0,0,0.2141,0.2156,0.2171,0.2198,0.2223,0.2227,0.224,0.226,0.2277,0.2312,0.2306,0.2333,0.2364,0.2379,0.239,0.2442,0.2468,0.245,0.2504,0.2571,0.2586,0.2599,0.2662,0.2681,0.2458,0.2458,0.2458,0,0.2147,0.2166,0.218,0.221,0.223,0.224,0.2267,0.2291,0.2316,0.2341,0.2331,0.2391,0.2393,0.2452,0.2466,0.2461,0.2505,0.2475,0.2583,0.2596,0.2609,0.267,0.2689,0.2462,0.2462,0.2461,0.2461,0,0.2168,0.2195,0.2211,0.2248,0.2272,0.2298,0.2331,0.236,0.2377,0.24,0.2464,0.2473,0.2512,0.2519,0.2511,0.26,0.2606,0.2582,0.2568,0.263,0.269,0.2709,0.2467,0.2466,0.2465,0.2464,0,0,0.2175,0.2213,0.2228,0.2256,0.2297,0.2322,0.2366,0.2412,0.2468,0.2494,0.257,0.2595,0.2612,0.2625,0.2629,0.2685,0.2803,0.2679,0.2681,0.2752,0.2971,0.2904,0.2918,0.2812,0.2815,0.2818,0.2982,0,0.2196,0.2241,0.2253,0.2313,0.2349,0.2375,0.2425,0.2473,0.252,0.2599,0.2627,0.27,0.2653,0.2697,0.274,0.2798,0.2855,0.2761,0.2891,0.2895,0.2837,0.2938,0.2717,0.284,0.3001,0.3004,0.3006,0,0.2238,0.2257,0.2306,0.2364,0.2384,0.2413,0.2502,0.2556,0.2655,0.2706,0.2771,0.2804,0.2892,0.2843,0.2971,0.2923,0.2953,0.2982,0.2989,0.2916,0.2864,0.2801,0.2868,0.3037,0.3035,0.3032,0.303,0,0.2269,0.2313,0.2345,0.2371,0.2428,0.2457,0.2491,0.2586,0.2652,0.2794,0.286,0.2954,0.3032,0.3083,0.3119,0.3076,0.326,0.3204,0.3167,0.3163,0.2993,0.2967,0.3293,0.3293,0.3292,0.3292,0.3291,0,0.2313,0.2354,0.2361,0.2397,0.2443,0.249,0.2576,0.2638,0.2751,0.2842,0.2922,0.3012,0.3102,0.3191,0.3197,0.3254,0.3324,0.3209,0.3213,0.3009,0.2984,0.3155,0.3136,0.3298,0.3297,0.3295,0.3294,0,0.2362,0.2378,0.2422,0.2456,0.2467,0.2514,0.2591,0.2661,0.278,0.2905,0.2956,0.3109,0.3244,0.33,0.3423,0.3366,0.3416,0.3405,0.316,0.313,0.3256,0.3239,0.3408,0.3407,0.3406,0.3406,0.3405,0,0.2375,0.2401,0.2447,0.2461,0.247,0.253,0.257,0.2673,0.2739,0.2943,0.2992,0.318,0.326,0.3419,0.341,0.3444,0.3458,0.3228,0.3084,0.3287,0.3274,0.3258,0.3243,0.2897,0.2893,0.2889,0.2886,0,0.2372,0.2402,0.2418,0.2462,0.2492,0.253,0.2581,0.2641,0.2779,0.2863,0.3006,0.3096,0.3264,0.3221,0.3271,0.324,0.3205,0.3152,0.3471,0.2886,0.2815,0.2798,0.2799,0.2853,0.2856,0.2859,0.286,0.2862,0.2337,0.234,0.2375,0.2397,0.246,0.2504,0.2523,0.2578,0.2658,0.274,0.289,0.2928,0.3007,0.2979,0.2917,0.2886,0.3073,0.2924,0.2932,0.2945,0.2841,0.277,0.2782,0.2784,0.2787,0.2789,0.2791,0,0.2258,0.2268,0.2291,0.2319,0.2367,0.2442,0.25,0.2467,0.2501,0.2598,0.2649,0.2481,0.2483,0.2565,0.2477,0.2479,0.2419,0.238,0.2279,0.2317,0.2349,0.2209,0.1985,0.1982,0.1979,0.1976,0,0,0.2214,0.2189,0.2182,0.2191,0.2253,0.228,0.2315,0.2271,0.2293,0.2223,0.2221,0.2369,0.2506,0.2197,0.2181,0.2073,0.2166,0.2002,0.2663,0.2585,0.2613,0.2697,0.2529,0,0,0,0,0]},{"header":{"parameterUnit":"m.s-1","parameterCategory":2,"la1":30.2991,"la2":30.254,"lo1":-89.0895,"lo2":-89.0444,"dy":0.0017,"dx":0.0017,"nx":28,"ny":28,"refTime":"2025-01-17T09:00:00:Z","depth":"2","parameterNumber":3,"parameterNumberName":"V-component_of_CURRENTS"},"data":[0,0,0,0,0,0,0,0,0,0,0,0,0,0,0,0,0,0,0,0,0,0,0,0,0,0,0,0,0,0,0,0,0,0,0,0,0,0,0,0,0,0,0,0,0,0,0,0,0,0,0,0,0,0,0,0,0,0,0.0022,0.0021,0,-0.0032,-0.0033,-0.0034,-0.0077,-0.0077,-0.0078,-0.0078,-0.0197,-0.02,-0.0203,0,0,0,0,0,0,0,0,0,0,0,0,0,0.0047,0.0047,0.0022,0.0021,0.0021,-0.0032,-0.0033,-0.0034,-0.0077,-0.0077,-0.0078,-0.0078,-0.0196,-0.0199,-0.0203,0,0,0,0,0,0,0,0,0,0,0,0,0,0.0017,0.0047,0.0022,-0.0006,-0.0009,-0.0032,-0.0033,-0.0034,-0.0077,-0.0077,-0.0078,-0.0078,-0.0195,-0.0199,-0.0203,-0.0222,0,0,-0.0217,-0.0219,0,0,0,0,0,0,0,0,0.0019,0.0016,-0.0001,-0.0004,-0.0007,-0.0047,-0.0068,-0.0099,-0.0077,-0.0053,-0.0078,-0.0078,-0.0151,-0.0159,-0.017,-0.0227,-0.0232,-0.0217,-0.022,-0.0222,-0.0223,0,0,0,0,0,0,0,0.0021,0.0018,-0.0001,-0.0002,-0.0005,-0.0029,-0.0034,-0.0074,-0.0102,-0.0055,-0.0058,-0.0061,-0.0154,-0.0166,-0.0173,-0.0234,-0.0217,-0.0221,-0.0224,-0.0225,-0.0314,-0.0314,0,0,0,0,0,0,0.0034,0.002,0.0,-0.0003,0.0007,-0.0029,-0.0034,-0.0035,-0.01,-0.0109,-0.0061,-0.0063,-0.0158,-0.0168,-0.0178,-0.0196,-0.0222,-0.0226,-0.0228,-0.0315,-0.0314,-0.0314,0,0,0,0,0,0,0.0035,0.0033,0.0003,0.0009,0.0003,-0.0029,-0.003,-0.0036,-0.0046,-0.0103,-0.0114,-0.0064,-0.0159,-0.0172,-0.0204,-0.0201,-0.0228,-0.0232,-0.0315,-0.0315,-0.0314,-0.0237,0,0,0,0,0,0,0.0036,0.0033,0.0037,0.001,0.0004,-0.0003,-0.0029,-0.0037,-0.0047,-0.0051,-0.011,-0.0121,-0.016,-0.0197,-0.0208,-0.0208,-0.0235,-0.0315,-0.0315,-0.0314,-0.024,-0.0234,-0.0229,0,0,0,0,0,0.0037,0.0047,0.0037,0.0035,0.001,-0.0003,-0.0008,-0.0034,-0.0046,-0.0046,-0.0083,-0.0119,-0.0202,-0.02,-0.0213,-0.0214,-0.0316,-0.0315,-0.0314,-0.0242,-0.0235,-0.0229,0,0,0,0,0,0,0.0061,0.0043,0.0032,0.0036,0.0021,-0.0009,-0.001,-0.0028,-0.0056,-0.0061,-0.0115,-0.0129,-0.0157,-0.0195,-0.0191,-0.0239,-0.0266,-0.0268,-0.0207,-0.0201,-0.0195,-0.0172,-0.0239,0,0,0,0,0,0.0069,0.0069,0.0049,0.0052,0.0048,0.002,0.0011,-0.0005,-0.0032,-0.0045,-0.0084,-0.0128,-0.0166,-0.0188,-0.0227,-0.0252,-0.0284,-0.0263,-0.0257,-0.0252,-0.0243,-0.0283,-0.028,-0.0312,-0.0312,-0.0312,0,0,0.0078,0.0069,0.0068,0.0057,0.0042,0.0048,0.0013,0.0007,0.0008,-0.0055,-0.0066,-0.011,-0.0168,-0.0193,-0.021,-0.0224,-0.026,-0.0252,-0.0247,-0.024,-0.0282,-0.0279,-0.0276,-0.0312,-0.0312,-0.0312,0,0,0.0104,0.0091,0.0103,0.0098,0.0085,0.0068,0.0071,0.0046,0.0031,0.0015,-0.003,-0.0066,-0.0122,-0.016,-0.0188,-0.0177,-0.0228,-0.0195,-0.0152,-0.019,-0.0188,-0.0186,-0.0217,-0.0218,-0.0193,-0.0193,-0.0193,0,0.012,0.0131,0.0105,0.012,0.0124,0.0084,0.0105,0.0084,0.0052,0.0045,0.0022,-0.0053,-0.0105,-0.0136,-0.0135,-0.0164,-0.0192,-0.0169,-0.0182,-0.0181,-0.018,-0.0212,-0.0215,-0.0189,-0.019,-0.019,-0.0191,0,0.0152,0.0167,0.0176,0.0182,0.0181,0.019,0.0168,0.016,0.0136,0.0114,0.0081,0.0014,-0.0026,-0.0056,-0.0094,-0.0117,-0.0139,-0.0168,-0.0194,-0.0172,-0.0208,-0.0212,-0.0184,-0.0185,-0.0186,-0.0187,0,0,0.0187,0.0197,0.0204,0.0225,0.0218,0.0226,0.0227,0.0221,0.0234,0.018,0.0188,0.0106,0.0072,0.0038,-0.002,-0.0062,-0.0087,-0.0107,-0.0111,-0.0129,-0.0166,-0.02,-0.0209,-0.0118,-0.0118,-0.0119,-0.019,0,0.0226,0.027,0.0261,0.0309,0.0336,0.031,0.0322,0.0308,0.0287,0.0283,0.0203,0.0187,0.0107,0.0095,0.0038,-0.0048,-0.0095,-0.0065,-0.0192,-0.0196,-0.0222,-0.0214,-0.019,-0.0254,-0.0195,-0.0195,-0.0196,0,0.0268,0.0296,0.0346,0.0388,0.0398,0.0416,0.0438,0.045,0.0424,0.041,0.0368,0.0307,0.0241,0.0173,0.0031,0.0055,-0.0046,-0.0125,-0.013,-0.019,-0.0238,-0.0269,-0.0264,-0.0203,-0.0203,-0.0202,-0.0202,0,0.0317,0.0363,0.0406,0.0419,0.045,0.047,0.0492,0.0488,0.0523,0.0502,0.0517,0.0415,0.0392,0.0243,0.0072,0.0056,-0.0086,-0.0128,-0.0259,-0.0263,-0.0282,-0.0287,-0.0233,-0.0232,-0.0232,-0.0232,-0.0232,0,0.0368,0.0419,0.0434,0.0466,0.0532,0.0537,0.0612,0.0612,0.0642,0.0702,0.0596,0.0608,0.041,0.0296,0.0116,-0.0076,-0.0054,-0.0247,-0.0284,-0.0255,-0.0257,-0.0246,-0.0247,-0.0235,-0.0234,-0.0234,-0.0233,0,0.0435,0.0438,0.0508,0.0544,0.0559,0.062,0.071,0.0772,0.078,0.0856,0.0858,0.077,0.0626,0.0404,0.018,0.0006,-0.0192,-0.0271,-0.0221,-0.0252,-0.0355,-0.0351,-0.0418,-0.042,-0.0421,-0.0423,-0.0424,0,0.0469,0.0502,0.057,0.0616,0.0641,0.0728,0.0794,0.084,0.0918,0.0955,0.0998,0.0887,0.0805,0.0456,0.0142,-0.0174,-0.0204,-0.035,-0.0389,-0.0345,-0.0374,-0.0368,-0.0362,-0.0383,-0.0383,-0.0384,-0.0384,0,0.0537,0.0559,0.061,0.071,0.0783,0.0885,0.0983,0.1076,0.1145,0.1187,0.1228,0.116,0.0826,0.0511,0.0081,-0.0135,-0.0301,-0.0372,-0.0335,-0.034,-0.0318,-0.0344,-0.0339,-0.0389,-0.0389,-0.0388,-0.0388,-0.0388,0.0576,0.0628,0.069,0.0781,0.0898,0.1038,0.1158,0.1264,0.1391,0.1471,0.1384,0.1284,0.0916,0.0358,0.0005,-0.0343,-0.0348,-0.0471,-0.0466,-0.0462,-0.0446,-0.0428,-0.0516,-0.0516,-0.0516,-0.0517,-0.0517,0,0.0593,0.0651,0.0753,0.0868,0.1023,0.1081,0.1277,0.1389,0.156,0.158,0.1566,0.1191,0.0808,0.042,-0.0108,-0.045,-0.0467,-0.0534,-0.0477,-0.0471,-0.0466,-0.0448,-0.052,-0.0521,-0.0522,-0.0522,0,0,0.0597,0.0671,0.0717,0.0928,0.1064,0.1277,0.1423,0.1591,0.1668,0.1678,0.1608,0.141,0.0924,0.0546,0.0084,-0.0197,-0.0247,-0.0256,-0.0224,-0.0097,-0.0086,-0.0412,-0.0375,0,0,0,0,0]}],[{"header":{"parameterUnit":"m.s-1","parameterCategory":2,"la1":30.2991,"la2":30.254,"lo1":-89.0895,"lo2":-89.0444,"dy":0.0017,"dx":0.0017,"nx":28,"ny":28,"refTime":"2025-01-17T09:00:00:Z","depth":"4","parameterNumber":2,"parameterNumberName":"U-component_of_CURRENTS"},"data":[0,0,0,0,0,0,0,0,0,0,0,0,0,0,0,0,0,0,0,0,0,0,0,0,0,0,0,0,0,0,0,0,0,0,0,0,0,0,0,0,0,0,0,0,0,0,0,0,0,0,0,0,0,0,0,0,0,0,0.122,0.1221,0,0.1326,0.1327,0.1328,0.14,0.14,0.1401,0.1401,0.1475,0.1477,0.1478,0,0,0,0,0,0,0,0,0,0,0,0,0,0.1099,0.1101,0.122,0.1221,0.1223,0.1326,0.1327,0.1329,0.1399,0.14,0.1401,0.1401,0.1475,0.1477,0.1478,0,0,0,0,0,0,0,0,0,0,0,0,0,0.1172,0.1102,0.122,0.1271,0.1277,0.1325,0.1327,0.1329,0.1399,0.14,0.1401,0.1402,0.1474,0.1476,0.1479,0.1476,0,0,0.1485,0.1486,0,0,0,0,0,0,0,0,0.1168,0.1177,0.1262,0.1267,0.1274,0.1351,0.1312,0.1377,0.1399,0.1352,0.1401,0.1402,0.143,0.1436,0.1454,0.1479,0.1483,0.1486,0.1487,0.1488,0.1488,0,0,0,0,0,0,0,0.1163,0.1173,0.1261,0.1263,0.1271,0.1295,0.1307,0.1325,0.1384,0.1356,0.1362,0.1374,0.1434,0.1452,0.1456,0.1484,0.1486,0.1487,0.1489,0.149,0.1604,0.1606,0,0,0,0,0,0,0.1149,0.1168,0.1258,0.1265,0.1223,0.1297,0.1309,0.1325,0.1385,0.1396,0.1373,0.1377,0.1448,0.1454,0.1459,0.155,0.1488,0.149,0.1491,0.1603,0.1605,0.1606,0,0,0,0,0,0,0.1146,0.1156,0.1254,0.1219,0.1233,0.1298,0.1315,0.1327,0.1376,0.1399,0.1408,0.1415,0.1449,0.1456,0.1511,0.155,0.1491,0.1493,0.16,0.1603,0.1606,0.1673,0,0,0,0,0,0,0.1142,0.1155,0.1177,0.1218,0.1235,0.1302,0.1315,0.1328,0.1381,0.1388,0.1436,0.1443,0.145,0.1508,0.1513,0.1552,0.1495,0.1598,0.1602,0.1605,0.1668,0.1677,0.1685,0,0,0,0,0,0.1138,0.116,0.1177,0.1189,0.1258,0.1303,0.1315,0.1363,0.1382,0.141,0.1449,0.1443,0.1532,0.1511,0.1517,0.1557,0.1597,0.1601,0.1604,0.1665,0.1676,0.1685,0,0,0,0,0,0,0.1117,0.117,0.119,0.1228,0.1272,0.1316,0.1349,0.1378,0.1432,0.1446,0.1465,0.1475,0.1537,0.1536,0.1513,0.1599,0.1563,0.1568,0.1606,0.1617,0.1625,0.162,0.1496,0,0,0,0,0,0.1121,0.1155,0.1203,0.1235,0.1259,0.1309,0.134,0.1372,0.1416,0.1443,0.148,0.1516,0.1552,0.1577,0.1604,0.165,0.1652,0.1679,0.1687,0.1694,0.1695,0.1732,0.1743,0.1619,0.1619,0.1619,0,0,0.1116,0.1155,0.1172,0.1235,0.1272,0.1315,0.1331,0.1384,0.1429,0.1439,0.1519,0.1548,0.1571,0.1629,0.1656,0.1638,0.1735,0.1699,0.1705,0.1702,0.1737,0.1749,0.176,0.1622,0.1621,0.1621,0,0,0.1121,0.1165,0.1194,0.1235,0.1301,0.1336,0.1357,0.1421,0.1464,0.1533,0.1556,0.161,0.1666,0.1696,0.1714,0.1781,0.1777,0.1795,0.1836,0.1873,0.1883,0.1892,0.1926,0.1938,0.1799,0.18,0.18,0,0.1114,0.1163,0.1209,0.1251,0.1292,0.1348,0.1389,0.1438,0.1517,0.1555,0.1567,0.1675,0.1696,0.1765,0.1796,0.1801,0.182,0.1796,0.1883,0.1892,0.19,0.1933,0.1944,0.1803,0.1803,0.1803,0.1802,0,0.1136,0.1186,0.1208,0.1283,0.1333,0.1378,0.1447,0.1508,0.1566,0.1612,0.1706,0.1748,0.1811,0.1831,0.1837,0.1913,0.1909,0.1889,0.1856,0.1917,0.1947,0.1958,0.1809,0.1807,0.1806,0.1805,0,0,0.1076,0.12,0.1207,0.1258,0.1357,0.1398,0.148,0.1565,0.1626,0.1705,0.1785,0.1857,0.189,0.1912,0.1936,0.197,0.2052,0.1962,0.1962,0.1992,0.2143,0.2008,0.2007,0.2053,0.2055,0.2056,0.2147,0,0.1078,0.1161,0.1227,0.1312,0.136,0.1447,0.1518,0.1605,0.1685,0.1777,0.1837,0.1922,0.1918,0.1968,0.2003,0.2044,0.2082,0.2029,0.2082,0.2083,0.1952,0.2015,0.2062,0.2155,0.2157,0.2159,0.216,0,0.1046,0.1132,0.121,0.1343,0.1372,0.1443,0.1575,0.1643,0.1768,0.1834,0.1925,0.198,0.2072,0.205,0.2146,0.2117,0.2138,0.2154,0.2158,0.2011,0.1967,0.2078,0.218,0.2178,0.2177,0.2176,0.2174,0,0.0949,0.1096,0.1168,0.1212,0.1375,0.1448,0.1539,0.1667,0.1743,0.1884,0.196,0.2057,0.2132,0.2174,0.222,0.2199,0.2305,0.2275,0.2171,0.2162,0.2226,0.2215,0.233,0.233,0.233,0.2329,0.2329,0,0.0882,0.0939,0.1148,0.1183,0.1307,0.1424,0.154,0.164,0.179,0.1873,0.1991,0.2069,0.2169,0.224,0.2256,0.2249,0.2337,0.2187,0.2176,0.2255,0.2246,0.2235,0.2223,0.2333,0.2332,0.2331,0.2331,0,0.0727,0.085,0.0937,0.1154,0.1252,0.1321,0.1554,0.1613,0.1781,0.1901,0.1957,0.2114,0.2197,0.2273,0.2348,0.2286,0.2296,0.2268,0.2367,0.2359,0.2124,0.2114,0.2162,0.2158,0.2155,0.2152,0.215,0,0.0658,0.0691,0.0904,0.0961,0.1073,0.124,0.1343,0.1576,0.1652,0.19,0.1933,0.2096,0.2174,0.2188,0.2258,0.2286,0.2254,0.2245,0.216,0.2121,0.2107,0.2103,0.2098,0.2144,0.2143,0.2142,0.2141,0,0.0543,0.0597,0.0675,0.0812,0.0939,0.1079,0.1267,0.1348,0.1586,0.1759,0.1886,0.1965,0.2052,0.2104,0.2146,0.2153,0.2241,0.2209,0.2215,0.2135,0.21,0.2088,0.2088,0.213,0.2131,0.2132,0.2133,0,0.0448,0.0456,0.0554,0.0665,0.0782,0.0897,0.1032,0.12,0.1355,0.1669,0.1695,0.1875,0.2027,0.2035,0.2069,0.2074,0.2036,0.196,0.1978,0.1992,0.189,0.1818,0.176,0,0,0,0,0,0.0383,0.0386,0.043,0.0547,0.0623,0.074,0.0965,0.1102,0.1388,0.1431,0.1585,0.1669,0.1767,0.1849,0.1819,0.1958,0.2013,0.1911,0.1925,0.2064,0.2078,0.1972,0,0,0,0,0,0,0.0334,0.036,0.0389,0.0426,0.0474,0.0613,0.0755,0.0948,0.1017,0.1283,0.1344,0.1535,0.164,0.1749,0.1768,0.1793,0.1764,0.2031,0.2026,0.2056,0.2069,0.208,0.1975,0,0,0,0,0]},{"header":{"parameterUnit":"m.s-1","parameterCategory":2,"la1":30.2991,"la2":30.254,"lo1":-89.0895,"lo2":-89.0444,"dy":0.0017,"dx":0.0017,"nx":28,"ny":28,"refTime":"2025-01-17T09:00:00:Z","depth":"4","parameterNumber":3,"parameterNumberName":"V-component_of_CURRENTS"},"data":[0,0,0,0,0,0,0,0,0,0,0,0,0,0,0,0,0,0,0,0,0,0,0,0,0,0,0,0,0,0,0,0,0,0,0,0,0,0,0,0,0,0,0,0,0,0,0,0,0,0,0,0,0,0,0,0,0,0,0.0019,0.0019,0,-0.0021,-0.0022,-0.0023,-0.0059,-0.006,-0.006,-0.006,-0.0152,-0.0154,-0.0156,0,0,0,0,0,0,0,0,0,0,0,0,0,0.0033,0.0033,0.0019,0.0019,0.0018,-0.0021,-0.0022,-0.0023,-0.0059,-0.006,-0.006,-0.0061,-0.0151,-0.0154,-0.0156,0,0,0,0,0,0,0,0,0,0,0,0,0,0.0012,0.0033,0.0019,-0.0004,-0.0006,-0.0021,-0.0022,-0.0023,-0.0059,-0.006,-0.006,-0.0061,-0.0151,-0.0154,-0.0157,-0.0166,0,0,-0.0166,-0.0168,0,0,0,0,0,0,0,0,0.0014,0.0012,-0.0,-0.0002,-0.0005,-0.0035,-0.0051,-0.0073,-0.0059,-0.004,-0.006,-0.0061,-0.0116,-0.0122,-0.013,-0.0171,-0.0174,-0.0167,-0.0169,-0.017,-0.0171,0,0,0,0,0,0,0,0.0015,0.0013,0.0002,-0.0,-0.0003,-0.0023,-0.0026,-0.0055,-0.0077,-0.0042,-0.0045,-0.0047,-0.0118,-0.0127,-0.0132,-0.0176,-0.0167,-0.017,-0.0171,-0.0173,-0.0242,-0.0241,0,0,0,0,0,0,0.0025,0.0015,0.0003,0.0001,0.0005,-0.0023,-0.0026,-0.0026,-0.0076,-0.0083,-0.0047,-0.0049,-0.0121,-0.0129,-0.0136,-0.0153,-0.017,-0.0173,-0.0175,-0.0242,-0.0242,-0.0241,0,0,0,0,0,0,0.0025,0.0024,0.0005,0.0007,0.0004,-0.0022,-0.0021,-0.0026,-0.0037,-0.0078,-0.0087,-0.0052,-0.0122,-0.0131,-0.0157,-0.0157,-0.0174,-0.0177,-0.0242,-0.0242,-0.0242,-0.0186,0,0,0,0,0,0,0.0026,0.0025,0.0027,0.0008,0.0004,-0.0,-0.0021,-0.0027,-0.0037,-0.004,-0.0086,-0.0095,-0.0123,-0.0152,-0.016,-0.0162,-0.018,-0.0242,-0.0242,-0.0242,-0.0188,-0.0184,-0.0181,0,0,0,0,0,0.0027,0.0034,0.0027,0.0026,0.0008,0.0,-0.0004,-0.0025,-0.0037,-0.0037,-0.0067,-0.0093,-0.0157,-0.0154,-0.0164,-0.0166,-0.0242,-0.0242,-0.0242,-0.019,-0.0185,-0.0181,0,0,0,0,0,0,0.0038,0.0031,0.0023,0.0026,0.0016,-0.0006,-0.0008,-0.0022,-0.0045,-0.005,-0.009,-0.0101,-0.0125,-0.0152,-0.0148,-0.0186,-0.0205,-0.0207,-0.0162,-0.0158,-0.0155,-0.0144,-0.0183,0,0,0,0,0,0.0043,0.0048,0.0035,0.0037,0.0035,0.0014,0.0007,-0.0006,-0.0027,-0.0038,-0.0067,-0.0101,-0.0131,-0.0149,-0.0178,-0.0197,-0.0232,-0.0206,-0.0202,-0.0199,-0.0198,-0.0246,-0.0247,-0.0241,-0.0241,-0.0241,0,0,0.0046,0.0044,0.0044,0.004,0.0029,0.0033,0.0008,0.0003,0.0001,-0.0045,-0.0057,-0.0089,-0.0133,-0.0153,-0.0167,-0.0177,-0.0219,-0.0199,-0.0196,-0.0196,-0.0246,-0.0247,-0.0247,-0.0241,-0.0241,-0.0241,0,0,0.0059,0.0055,0.0065,0.0063,0.0055,0.0046,0.0047,0.003,0.0016,0.0003,-0.0032,-0.0061,-0.0102,-0.0133,-0.0154,-0.0149,-0.0197,-0.0161,-0.0136,-0.0183,-0.0184,-0.0185,-0.0227,-0.0232,-0.016,-0.016,-0.016,0,0.0061,0.0075,0.0065,0.0076,0.0079,0.0056,0.0068,0.0054,0.0029,0.0019,0.0006,-0.0057,-0.0092,-0.0125,-0.0122,-0.0141,-0.0174,-0.0147,-0.0178,-0.018,-0.0182,-0.0225,-0.0231,-0.0157,-0.0157,-0.0158,-0.0158,0,0.0081,0.0095,0.0102,0.0111,0.0113,0.0119,0.0106,0.0099,0.0082,0.0064,0.0031,-0.0016,-0.0054,-0.0071,-0.0095,-0.0127,-0.0148,-0.0165,-0.0186,-0.0179,-0.0225,-0.0233,-0.0153,-0.0154,-0.0155,-0.0156,0,0,0.0071,0.0109,0.011,0.0126,0.0133,0.0135,0.014,0.0132,0.0128,0.0096,0.0082,0.0031,0.0002,-0.0024,-0.0064,-0.0104,-0.0146,-0.0136,-0.0139,-0.0172,-0.0249,-0.0242,-0.0251,-0.017,-0.0171,-0.0172,-0.0274,0,0.0085,0.0122,0.0137,0.0167,0.0184,0.0179,0.0186,0.0175,0.0156,0.0137,0.0082,0.0054,0.0021,0.0001,-0.0044,-0.0122,-0.0165,-0.0117,-0.0256,-0.026,-0.0251,-0.0259,-0.0176,-0.028,-0.0282,-0.0283,-0.0284,0,0.0089,0.0119,0.0154,0.0198,0.0205,0.022,0.0225,0.023,0.0201,0.0184,0.0148,0.0105,0.0045,0.0015,-0.0113,-0.0081,-0.0157,-0.0219,-0.0225,-0.0243,-0.0268,-0.0291,-0.0299,-0.0298,-0.0297,-0.0296,-0.0295,0,0.007,0.0126,0.0156,0.0168,0.0211,0.0226,0.0248,0.0239,0.0249,0.0214,0.021,0.013,0.0088,-0.0013,-0.0132,-0.0127,-0.0278,-0.029,-0.0358,-0.0359,-0.0359,-0.0357,-0.0383,-0.0383,-0.0382,-0.0382,-0.0382,0,0.007,0.0099,0.0153,0.0166,0.0204,0.0235,0.0263,0.0266,0.0278,0.0291,0.0236,0.0216,0.0078,-0.0018,-0.0127,-0.0265,-0.0278,-0.0357,-0.0385,-0.0333,-0.0326,-0.0365,-0.0361,-0.0386,-0.0385,-0.0384,-0.0384,0,0.0053,0.0081,0.0116,0.017,0.0194,0.0217,0.0294,0.0313,0.0325,0.034,0.0335,0.0266,0.0144,0.0002,-0.0175,-0.0256,-0.0391,-0.0438,-0.0369,-0.0392,-0.0442,-0.0434,-0.0521,-0.0522,-0.0523,-0.0523,-0.0523,0,0.0066,0.0078,0.0114,0.0141,0.0175,0.023,0.0269,0.0316,0.0354,0.0371,0.0379,0.0281,0.0214,-0.0016,-0.0179,-0.0392,-0.0419,-0.0488,-0.0464,-0.0437,-0.0457,-0.0448,-0.044,-0.0524,-0.0524,-0.0525,-0.0525,0,0.0104,0.0089,0.0122,0.0164,0.0205,0.0259,0.0336,0.0365,0.0421,0.0419,0.0426,0.0323,0.018,-0.0002,-0.0173,-0.0325,-0.0441,-0.0494,-0.0494,-0.0472,-0.0442,-0.0459,-0.045,-0.0527,-0.0526,-0.0526,-0.0526,0,0.0138,0.0155,0.0181,0.0216,0.0266,0.0317,0.0333,0.0405,0.0446,0.0479,0.0466,0.0338,0.0254,0.003,-0.0127,-0.0276,-0.0311,-0.0348,-0.0356,-0.0356,-0.0277,-0.0212,-0.0253,0,0,0,0,0,0.0186,0.0213,0.0253,0.0293,0.0332,0.0358,0.041,0.0424,0.0458,0.0477,0.0494,0.0375,0.0168,0.0067,-0.008,-0.0166,-0.0363,-0.0344,-0.0415,-0.0537,-0.0535,-0.0469,0,0,0,0,0,0,0.0223,0.0268,0.0272,0.0363,0.0394,0.0452,0.0472,0.0476,0.0499,0.0505,0.0394,0.0351,0.0134,0.0263,-0.0073,-0.0123,-0.0186,-0.0447,-0.0449,-0.0538,-0.0536,-0.0534,-0.0466,0,0,0,0,0]}]]